Torna al catalogo

FENGYUN 1C DEB

LostPO
NORAD 36700·DEBRIS·🇨🇳 China

Lanciato May 10, 1999 da Taiyuan Satellite Launch Center

Loading…

Prossimi Passaggi (prossime 24 ore)

TLE

ObsoletoSource: Space-Track

Epoca: Jan 26, 2023, 15:13 UTC

1 36700U 99025DZW 23026.63450187  .00003827  00000-0  30928-2 0  9992
2 36700  99.8269 337.0616 0154842  25.8404 335.0381 13.85500706483388

Traccia FENGYUN 1C DEB in tempo reale con AllMySat

Download on the App Store